Regional Weather Roundup
Issued by NWS Little Rock, AR

Home | Current Version | Previous Version | Text Only | Print | Product List | Glossary Off
Versions: 1 2 3 4 5 6 7 8 9 10 11 12 13 14 15 16 17 18 19 20 21 22 23 24 25 26 27

000
ASUS44 KLZK 260605
RWRLZK

WEATHER ROUNDUP FOR ARKANSAS
NATIONAL WEATHER SERVICE LITTLE ROCK AR
100 AM CDT FRI AUG 26 2016

NOTE: "FAIR" INDICATES FEW OR NO CLOUDS BELOW 12,000 FEET WITH NO
SIGNIFICANT WEATHER AND/OR OBSTRUCTIONS TO VISIBILITY.

ARZ001-003-010-029-260700-
NORTHWEST ARKANSAS

CITY           SKY/WX    TMP DP  RH WIND       PRES   REMARKS
FAYETTEVILLE   FAIR      69  67  93 CALM      30.10F
6HR MIN TEMP:  69; 6HR MAX TEMP:  84;

FORT SMITH     FAIR      75  69  81 E5        30.08S
6HR MIN TEMP:  75; 6HR MAX TEMP:  82;

HARRISON       FAIR      75  68  78 SE6       30.11F
6HR MIN TEMP:  74; 6HR MAX TEMP:  80;

BENTONVILLE    FAIR      73  63  68 S5        30.10F
6HR MIN TEMP:  73; 6HR MAX TEMP:  88;

ROGERS         FAIR      75  67  76 SE9       30.10F
6HR MIN TEMP:  74; 6HR MAX TEMP:  87;

SILOAM SPGS    FAIR      72  61  68 S5        30.11R
6HR MIN TEMP:  72; 6HR MAX TEMP:  88;

HIGHFILL       FAIR      73  68  84 S3        30.09F
6HR MIN TEMP:  73; 6HR MAX TEMP:  89;

$$

ARZ004-005-016-260700-
NORTH CENTRAL ARKANSAS

CITY           SKY/WX    TMP DP  RH WIND       PRES   REMARKS
BATESVILLE     FAIR      75  73  94 CALM      30.09R
6HR MIN TEMP:  75; 6HR MAX TEMP:  84;

FLIPPIN        FAIR      75  70  83 W5        30.05F
6HR MIN TEMP:  75; 6HR MAX TEMP:  82;

MTN HOME       FAIR      75  73  93 CALM      30.08F
6HR MIN TEMP:  75; 6HR MAX TEMP:  81;

$$

ARZ040-041-260700-
WEST CENTRAL ARKANSAS

CITY           SKY/WX    TMP DP  RH WIND       PRES   REMARKS
MENA           NOT AVBL
MOUNT IDA      FAIR      76  70  82 CALM      30.07
6HR MIN TEMP:  74; 6HR MAX TEMP:  77; 6HR PCP: TRACE;

$$

ARZ009-017-025-026-028-260700-
NORTHEAST ARKANSAS

CITY           SKY/WX    TMP DP  RH WIND       PRES   REMARKS
JONESBORO      FAIR      76  74  93 CALM      30.07F
6HR MIN TEMP:  76; 6HR MAX TEMP:  87;

NEWPORT        FAIR      78  77  96 S3        30.07F
6HR MIN TEMP:  77; 6HR MAX TEMP:  86;

WALNUT RIDGE   FAIR      79  75  89 CALM      30.06F
6HR MIN TEMP:  79; 6HR MAX TEMP:  88;

BLYTHEVILLE    FAIR      78  76  93 S6        30.07F
6HR MIN TEMP:  78; 6HR MAX TEMP:  89;

$$

ARZ022-023-033-042-044-260700-
CENTRAL ARKANSAS

CITY           SKY/WX    TMP DP  RH WIND       PRES   REMARKS
LITTLE ROCK    CLOUDY    77  72  84 S3        30.08F
6HR MIN TEMP:  77; 6HR MAX TEMP:  81; 6HR PCP: TRACE;

JACKSONVILLE   FAIR      76  75  96 CALM      30.08F
6HR MIN TEMP:  76; 6HR MAX TEMP:  81; 6HR PCP: TRACE;

SEARCY         FAIR      77  77 100 SW3       30.10S
6HR MIN TEMP:  77; 6HR MAX TEMP:  82;

HOT SPRINGS    FAIR      75  71  87 CALM      30.08F
6HR MIN TEMP:  74; 6HR MAX TEMP:  76; 6HR PCP: TRACE;

RUSSELLVILLE   FAIR      74  73  97 SE7       30.08F
6HR MIN TEMP:  73; 6HR MAX TEMP:  75; 6HR PCP:  0.01;

$$

ARZ036-260700-
EAST ARKANSAS

CITY           SKY/WX    TMP DP  RH WIND       PRES   REMARKS
WEST MEMPHIS   FAIR      75  74  96 NW5       30.07S
6HR MIN TEMP:  75; 6HR MAX TEMP:  79;

$$

ARZ050-053-066-070-073-260700-
SOUTHWEST ARKANSAS

CITY           SKY/WX    TMP DP  RH WIND       PRES   REMARKS
ARKADELPHIA    FAIR      74  73  97 N5        30.05F
6HR MIN TEMP:  74; 6HR MAX TEMP:  75; 6HR PCP:  0.04;

CAMDEN         FAIR      73  70  88 SW5       30.03F
TEXARKANA      FAIR      74  72  93 S3        30.09S
6HR MIN TEMP:  73; 6HR MAX TEMP:  76; 6HR PCP:  0.11;

EL DORADO      FAIR      73  73 100 S7        30.06F
6HR MIN TEMP:  73; 6HR MAX TEMP:  75; 6HR PCP:  0.33;

DE QUEEN       FAIR      74  74 100 NE3       30.07F
6HR MIN TEMP:  74; 6HR MAX TEMP:  77;

$$

ARZ056-057-069-260700-
SOUTHEAST ARKANSAS

CITY           SKY/WX    TMP DP  RH WIND       PRES   REMARKS
PINE BLUFF     FAIR      74  72  93 CALM      30.07F
6HR MIN TEMP:  74; 6HR MAX TEMP:  77; 6HR PCP:  0.03;

STUTTGART      FAIR      75  72  88 SW6       30.08S
6HR MIN TEMP:  75; 6HR MAX TEMP:  81;

MONTICELLO     FAIR      75  72  90 SE6       30.07S
6HR MIN TEMP:  75; 6HR MAX TEMP:  77; 6HR PCP:  0.13;


$$






USA.gov is the U.S. government's official web portal to all federal, state and local government web resources and services.